Regional Weather Roundup
Issued by NWS Portland, ME

Home | Current Version | Previous Version | Text Only | Print | Product List | Glossary On
Versions: 1 2 3 4 5 6 7 8 9 10 11 12 13 14 15 16 17 18 19 20 21 22 23 24 25 26 27 28 29 30 31 32 33 34 35 36 37 38 39 40 41 42 43 44 45 46 47 48 49 50
000
ASUS41 KGYX 051010
RWRGYX
WEATHER ROUNDUP FOR MAINE AND NEW HAMPSHIRE
NATIONAL WEATHER SERVICE GRAY ME
600 AM EDT THU MAY 05 2016

MEZ002-005-006-010-012-015-018-020-021-024-026-027-029-051100-
MAINE

CITY           SKY/WX    TMP DP  RH WIND       PRES   REMARKS
PORTLAND       DRIZZLE   44  42  93 N10       29.80R
SANFORD        CLOUDY    43  37  81 N10       29.79S
BAR HARBOR     CLOUDY    42  40  92 NE12      29.82R
WISCASSET      CLOUDY    44  42  93 NE6       29.82R FOG
ROCKLAND       CLOUDY    43  42  97 NE12G20   29.80R FOG
FRYEBURG       CLOUDY    43  42  97 N6        29.82R FOG
LEWISTONAUBURN CLOUDY    43  39  87 N12       29.81S
AUGUSTA        CLOUDY    42  41  96 N9        29.83R FOG
WATERVILLE     LGT RAIN  42  41  96 N12       29.81R FOG
BANGOR         CLOUDY    45  40  82 NE12      29.84R
GREENVILLE       N/A     38  36  92 E6        29.82R
MILLINOCKET    CLOUDY    40  37  89 NE9       29.90R
HOULTON        LGT RAIN  39  35  86 NE10      29.89F
PRESQUE ISLE   LGT RAIN  41  35  79 NE10      29.93F
FRENCHVILLE    CLOUDY    41  32  70 NE9       29.93S
CARIBOU        LGT RAIN  42  35  76 NE7       29.92S
$$

NHZ002-005-008-009-011-012-014-051100-
NEW HAMPSHIRE

CITY           SKY/WX    TMP DP  RH WIND       PRES   REMARKS
PORTSMOUTH     CLOUDY    44  42  95 N9        29.77S FOG
ROCHESTER      CLOUDY    43  41  93 N5        29.78R
NASHUA         LGT RAIN  43  42  97 N5        29.78S FOG
MANCHESTER     DRZL/FOG  43  41  93 N7        29.77R VSB 1
CONCORD        CLOUDY    43  41  93 NW5       29.79S
LACONIA        CLOUDY    45  39  81 NE8       29.80S
PLYMOUTH       CLOUDY    43  41  95 CALM      29.80R
BERLIN         CLOUDY    43  39  86 NE3       29.82R
WHITEFIELD     CLOUDY    45  38  76 E8        29.81R
JAFFREY        CLOUDY    40  39  97 VRB3      29.76S FOG
KEENE          CLOUDY    43  39  87 N6        29.79S
LEBANON        CLOUDY    44  42  93 N3        29.79S
MT WASHINGTON  FOG       32  32 100 NE13        N/A  VSB 1/16
$$

VTZ005-007-008-051100-
VERMONT

CITY           SKY/WX    TMP DP  RH WIND       PRES   REMARKS
ST JOHNSBURY     N/A     45  42  89 MISG      29.80R
MONTPELIER     CLOUDY    43  41  93 CALM      29.83S
BURLINGTON     CLOUDY    47  44  90 NW3       29.80S
$$

MAZ007-012-024-CTZ003-RIZ002-NYZ038-NYZ072-051100-
SOUTHERN NEW ENGLAND AND NY

CITY           SKY/WX    TMP DP  RH WIND       PRES   REMARKS
BOSTON         CLOUDY    44  42  93 N16       29.76S
WORCESTER      CLOUDY    39  38  96 NE10G22   29.72S FOG
NANTUCKET      CLOUDY   N/A N/A N/A N20G28    29.63F
PROVIDENCE     DRIZZLE   45  42  89 N18       29.71S
HARTFORD       CLOUDY    44  40  85 N13       29.73S
ALBANY         CLOUDY    47  44  90 N3        29.76S
NEW YORK CITY  CLOUDY    48  45  89 N12G17    29.70S
$$

ANZ081-ANZ082-ANZ150-NHZ014-MEZ023>029-051100-
COASTAL MARINE OBSERVATIONS

STATION/POSITION TIME  TEMP    WIND        PRES    WAVE
                       AIR SEA DIR/SP/G            HT/PER
                 (UTC) (F)     (DEG/KT/KT) (MB)    (FT/S)
MOUNT DESERT ROC 1000   41      30/ 30/ 33 1007.9R
MATINICUS ROCK   0900   42      40/ 24/ 27 1007.2R
ISLE OF SHOALS   0900   43      10/ 18/ 20 1007.6F
CASHES LEDGE BUO 0950   44 44   30/ 17/ 21 1006.8R   8/ 7
GEORGES BANK BUO 0950   56 46              1003.1R   6/ 8
$$

.............KEY..............
   WCI - WIND CHILL
   TC  - TEMPERATURE IN CELSIUS
   VSB - VISIBILITY IN MILES
   HX  - HEAT INDEX
   FAIR- INDICATES FEW OR NO CLOUDS BELOW 12,000 FT, WITH NO
         SIGNIFICANT WEATHER AND/OR OBSTRUCTIONS TO VISIBILITY.





USA.gov is the U.S. government's official web portal to all federal, state and local government web resources and services.